| time (UTC) | temp F | wind direction | speed MPH | gust MPH | rain 1hr in | rain 24hr in | rain mn in | humidity % | barometer mb |
| 20260508000007 | 50 | 100 | 4.0 | 9.0 | 0.00 | 0.00 | 0.00 | 53 | 1009.9 |
| 20260507235512 | 51 | 58 | 4.0 | 8.0 | 0.00 | 0.00 | 0.00 | 52 | 1009.9 |
| 20260507235010 | 51 | 338 | 3.0 | 11.0 | 0.00 | 0.00 | 0.00 | 51 | 1009.8 |
| 20260507234516 | 51 | 36 | 4.0 | 11.0 | 0.00 | 0.00 | 0.00 | 50 | 1009.8 |
| 20260507234006 | 51 | 77 | 4.0 | 11.0 | 0.00 | 0.00 | 0.00 | 49 | 1009.9 |
| 20260507233506 | 51 | 79 | 4.0 | 9.0 | 0.00 | 0.00 | 0.00 | 48 | 1009.8 |
| 20260507233030 | 51 | 97 | 5.0 | 9.0 | 0.00 | 0.00 | 0.00 | 48 | 1009.8 |
| 20260507232508 | 51 | 84 | 3.0 | 9.0 | 0.00 | 0.00 | 0.00 | 48 | 1009.9 |
| 20260507232004 | 52 | 89 | 4.0 | 10.0 | 0.00 | 0.00 | 0.00 | 47 | 1009.8 |
| 20260507231510 | 52 | 55 | 5.0 | 8.0 | 0.00 | 0.00 | 0.00 | 46 | 1009.8 |
| 20260507231011 | 52 | 103 | 3.0 | 9.0 | 0.00 | 0.00 | 0.00 | 46 | 1009.8 |
| 20260507230509 | 52 | 81 | 3.0 | 9.0 | 0.00 | 0.00 | 0.00 | 47 | 1010.0 |
| 20260507230015 | 52 | 136 | 3.0 | 9.0 | 0.00 | 0.00 | 0.00 | 47 | 1010.0 |
| 20260507225505 | 52 | 125 | 3.0 | 8.0 | 0.00 | 0.00 | 0.00 | 47 | 1010.0 |
| 20260507225003 | 52 | 40 | 4.0 | 11.0 | 0.00 | 0.00 | 0.00 | 47 | 1010.0 |
| 20260507224514 | 52 | 42 | 4.0 | 11.0 | 0.00 | 0.00 | 0.00 | 47 | 1010.0 |
| 20260507224007 | 52 | 46 | 7.0 | 14.0 | 0.00 | 0.00 | 0.00 | 47 | 1010.1 |
| 20260507223503 | 52 | 98 | 6.0 | 14.0 | 0.00 | 0.00 | 0.00 | 47 | 1010.1 |
| 20260507223018 | 52 | 110 | 6.0 | 12.0 | 0.00 | 0.00 | 0.00 | 47 | 1010.1 |
| 20260507222502 | 52 | 95 | 6.0 | 10.0 | 0.00 | 0.00 | 0.00 | 47 | 1010.1 |
| 20260507222003 | 52 | 111 | 5.0 | 10.0 | 0.00 | 0.00 | 0.00 | 48 | 1010.0 |
| 20260507221528 | 52 | 65 | 4.0 | 7.0 | 0.00 | 0.00 | 0.00 | 48 | 1010.0 |
| 20260507221007 | 52 | 150 | 3.0 | 9.0 | 0.00 | 0.00 | 0.00 | 49 | 1010.1 |
| 20260507220503 | 52 | 126 | 1.0 | 10.0 | 0.00 | 0.00 | 0.00 | 48 | 1010.1 |
| 20260507220018 | 52 | 72 | 3.0 | 10.0 | 0.00 | 0.00 | 0.00 | 48 | 1010.1 |
| 20260507215503 | 53 | 148 | 5.0 | 10.0 | 0.00 | 0.00 | 0.00 | 46 | 1010.0 |
| 20260507215004 | 53 | 169 | 2.0 | 7.0 | 0.00 | 0.00 | 0.00 | 47 | 1009.9 |
| 20260507214520 | 53 | 146 | 3.0 | 7.0 | 0.00 | 0.00 | 0.00 | 47 | 1009.9 |
| 20260507214008 | 53 | 309 | 2.0 | 9.0 | 0.00 | 0.00 | 0.00 | 47 | 1009.9 |
| 20260507213503 | 54 | 163 | 4.0 | 9.0 | 0.00 | 0.00 | 0.00 | 46 | 1009.8 |
| 20260507213027 | 54 | 167 | 1.0 | 7.0 | 0.00 | 0.00 | 0.00 | 46 | 1009.8 |
| 20260507212502 | 53 | 107 | 4.0 | 10.0 | 0.00 | 0.00 | 0.00 | 47 | 1009.9 |
| 20260507212003 | 52 | 169 | 4.0 | 10.0 | 0.00 | 0.00 | 0.00 | 49 | 1009.9 |
| 20260507211533 | 52 | 53 | 3.0 | 8.0 | 0.00 | 0.00 | 0.00 | 49 | 1010.0 |
| 20260507211004 | 52 | 227 | 1.0 | 9.0 | 0.00 | 0.00 | 0.00 | 47 | 1010.0 |
| 20260507210503 | 52 | 131 | 5.0 | 9.0 | 0.00 | 0.00 | 0.00 | 47 | 1010.0 |
| 20260507210029 | 53 | 121 | 4.0 | 9.0 | 0.00 | 0.00 | 0.00 | 45 | 1010.1 |
| 20260507205503 | 54 | 97 | 4.0 | 9.0 | 0.00 | 0.00 | 0.00 | 45 | 1009.9 |
| 20260507205005 | 54 | 148 | 2.0 | 9.0 | 0.00 | 0.00 | 0.00 | 47 | 1009.9 |
| 20260507204524 | 54 | 142 | 5.0 | 9.0 | 0.00 | 0.00 | 0.00 | 47 | 1010.0 |
| 20260507204004 | 55 | 143 | 2.0 | 9.0 | 0.00 | 0.00 | 0.00 | 46 | 1009.9 |
| 20260507203506 | 54 | 141 | 6.0 | 9.0 | 0.00 | 0.00 | 0.00 | 47 | 1010.0 |
| 20260507203003 | 54 | 119 | 5.0 | 8.0 | 0.00 | 0.00 | 0.00 | 48 | 1010.0 |
| 20260507202511 | 55 | 136 | 2.0 | 9.0 | 0.00 | 0.00 | 0.00 | 46 | 1010.1 |
| 20260507202006 | 54 | 216 | 2.0 | 9.0 | 0.00 | 0.00 | 0.00 | 46 | 1010.2 |
| 20260507201506 | 53 | 71 | 4.0 | 9.0 | 0.00 | 0.00 | 0.00 | 47 | 1010.3 |
| 20260507201008 | 53 | 98 | 4.0 | 8.0 | 0.00 | 0.00 | 0.00 | 49 | 1010.4 |
| 20260507200505 | 52 | 61 | 3.0 | 10.0 | 0.00 | 0.00 | 0.00 | 49 | 1010.5 |
| 20260507200004 | 50 | 117 | 4.0 | 10.0 | 0.00 | 0.00 | 0.00 | 51 | 1010.6 |
| 20260507195504 | 50 | 105 | 4.0 | 11.0 | 0.00 | 0.00 | 0.00 | 51 | 1010.4 |
| 20260507195011 | 51 | 127 | 2.0 | 11.0 | 0.00 | 0.00 | 0.00 | 50 | 1010.7 |
| 20260507194511 | 51 | 132 | 4.0 | 14.0 | 0.00 | 0.00 | 0.00 | 50 | 1010.8 |
| 20260507194005 | 51 | 134 | 1.0 | 14.0 | 0.00 | 0.00 | 0.00 | 50 | 1010.8 |
| 20260507193511 | 50 | 150 | 7.0 | 14.0 | 0.00 | 0.00 | 0.00 | 51 | 1010.9 |
| 20260507193007 | 50 | 143 | 2.0 | 9.0 | 0.00 | 0.00 | 0.00 | 52 | 1011.3 |
| 20260507192504 | 51 | 231 | 1.0 | 7.0 | 0.00 | 0.00 | 0.00 | 51 | 1011.4 |
| 20260507192007 | 51 | 232 | 1.0 | 8.0 | 0.00 | 0.00 | 0.00 | 51 | 1011.2 |
| 20260507191508 | 51 | 52 | 3.0 | 10.0 | 0.00 | 0.00 | 0.00 | 47 | 1011.2 |
| 20260507191003 | 52 | 30 | 2.0 | 14.0 | 0.00 | 0.00 | 0.00 | 46 | 1010.9 |
| 20260507190506 | 52 | 108 | 3.0 | 14.0 | 0.00 | 0.00 | 0.00 | 45 | 1010.9 |
| 20260507190013 | 54 | 161 | 8.0 | 13.0 | 0.00 | 0.00 | 0.00 | 41 | 1010.7 |
| 20260507185509 | 54 | 89 | 3.0 | 7.0 | 0.00 | 0.00 | 0.00 | 38 | 1010.5 |
| 20260507185008 | 55 | 118 | 3.0 | 6.0 | 0.00 | 0.00 | 0.00 | 37 | 1010.6 |
| 20260507184510 | 55 | 327 | 2.0 | 4.0 | 0.00 | 0.00 | 0.00 | 36 | 1010.6 |
| 20260507184004 | 56 | 328 | 0.0 | 2.0 | 0.00 | 0.00 | 0.00 | 36 | 1010.7 |
| 20260507183510 | 56 | 225 | 0.0 | 4.0 | 0.00 | 0.00 | 0.00 | 1010.9 | |
| 20260507183013 | 55 | 86 | 2.0 | 4.0 | 0.00 | 0.00 | 0.00 | 1011.0 | |
| 20260507182504 | 56 | 181 | 2.0 | 6.0 | 0.00 | 0.00 | 0.00 | 36 | 1011.2 |
| 20260507182013 | 57 | 147 | 2.0 | 6.0 | 0.00 | 0.00 | 0.00 | 36 | 1011.4 |
| 20260507181509 | 56 | 139 | 3.0 | 7.0 | 0.00 | 0.00 | 0.00 | 36 | 1011.3 |
| 20260507181007 | 56 | 163 | 2.0 | 7.0 | 0.00 | 0.00 | 0.00 | 37 | 1011.4 |
| 20260507180510 | 55 | 198 | 2.0 | 9.0 | 0.00 | 0.00 | 0.00 | 37 | 1011.4 |
| 20260507180029 | 55 | 209 | 5.0 | 10.0 | 0.00 | 0.00 | 0.00 | 36 | 1011.5 |
| 20260507175507 | 56 | 128 | 4.0 | 10.0 | 0.00 | 0.00 | 0.00 | 35 | 1011.5 |
| 20260507175006 | 57 | 196 | 5.0 | 12.0 | 0.00 | 0.00 | 0.00 | 35 | 1011.5 |
| 20260507174514 | 57 | 172 | 2.0 | 12.0 | 0.00 | 0.00 | 0.00 | 37 | 1011.6 |
| 20260507174006 | 56 | 239 | 4.0 | 11.0 | 0.00 | 0.00 | 0.00 | 37 | 1011.8 |
| 20260507173517 | 56 | 265 | 4.0 | 11.0 | 0.00 | 0.00 | 0.00 | 36 | 1011.9 |
| 20260507173041 | 54 | 165 | 1.0 | 7.0 | 0.00 | 0.00 | 0.00 | 38 | 1011.9 |
| 20260507172509 | 54 | 128 | 3.0 | 7.0 | 0.00 | 0.00 | 0.00 | 37 | 1012.1 |
| 20260507172002 | 54 | 194 | 2.0 | 7.0 | 0.00 | 0.00 | 0.00 | 38 | 1012.2 |
| 20260507171518 | 55 | 121 | 3.0 | 7.0 | 0.00 | 0.00 | 0.00 | 37 | 1012.3 |
| 20260507171006 | 55 | 143 | 2.0 | 8.0 | 0.00 | 0.00 | 0.00 | 37 | 1012.4 |
| 20260507170503 | 54 | 208 | 3.0 | 8.0 | 0.00 | 0.00 | 0.00 | 38 | 1012.3 |
| 20260507170021 | 53 | 144 | 2.0 | 10.0 | 0.00 | 0.00 | 0.00 | 39 | 1012.4 |
| 20260507165512 | 53 | 286 | 2.0 | 10.0 | 0.00 | 0.00 | 0.00 | 38 | 1012.6 |
| 20260507165004 | 53 | 234 | 2.0 | 10.0 | 0.00 | 0.00 | 0.00 | 37 | 1012.6 |
| 20260507164528 | 55 | 182 | 6.0 | 10.0 | 0.00 | 0.00 | 0.00 | 36 | 1012.7 |
| 20260507164011 | 54 | 201 | 3.0 | 7.0 | 0.00 | 0.00 | 0.00 | 38 | 1012.8 |
| 20260507163504 | 53 | 204 | 2.0 | 6.0 | 0.00 | 0.00 | 0.00 | 38 | 1012.9 |
| 20260507163019 | 54 | 178 | 1.0 | 7.0 | 0.00 | 0.00 | 0.00 | 38 | 1012.9 |
| 20260507162508 | 52 | 161 | 2.0 | 7.0 | 0.00 | 0.00 | 0.00 | 39 | 1012.9 |
| 20260507162003 | 52 | 250 | 3.0 | 7.0 | 0.00 | 0.00 | 0.00 | 38 | 1013.1 |
| 20260507161528 | 52 | 147 | 3.0 | 5.0 | 0.00 | 0.00 | 0.00 | 39 | 1013.1 |
| 20260507161010 | 51 | 311 | 2.0 | 6.0 | 0.00 | 0.00 | 0.00 | 39 | 1013.1 |
| 20260507160510 | 53 | 125 | 2.0 | 6.0 | 0.00 | 0.00 | 0.00 | 39 | 1013.2 |
| 20260507160025 | 51 | 148 | 1.0 | 7.0 | 0.00 | 0.00 | 0.00 | 40 | 1013.3 |
| 20260507155509 | 50 | 21 | 3.0 | 10.0 | 0.00 | 0.00 | 0.00 | 40 | 1013.3 |
| 20260507155006 | 51 | 258 | 1.0 | 10.0 | 0.00 | 0.00 | 0.00 | 38 | 1013.4 |
| 20260507154524 | 49 | 258 | 2.0 | 5.0 | 0.00 | 0.00 | 0.00 | 41 | 1013.5 |
| 20260507154013 | 49 | 123 | 2.0 | 10.0 | 0.00 | 0.00 | 0.00 | 41 | 1013.6 |
| 20260507153505 | 50 | 288 | 6.0 | 10.0 | 0.00 | 0.00 | 0.00 | 39 | 1013.7 |
| 20260507153031 | 50 | 317 | 3.0 | 9.0 | 0.00 | 0.00 | 0.00 | 40 | 1013.8 |
| 20260507152511 | 49 | 303 | 0.0 | 9.0 | 0.00 | 0.00 | 0.00 | 42 | 1013.8 |
| 20260507152006 | 48 | 189 | 2.0 | 9.0 | 0.00 | 0.00 | 0.00 | 43 | 1013.9 |
| 20260507151526 | 49 | 194 | 1.0 | 8.0 | 0.00 | 0.00 | 0.00 | 42 | 1014.0 |
| 20260507151009 | 49 | 273 | 4.0 | 8.0 | 0.00 | 0.00 | 0.00 | 43 | 1014.1 |
| 20260507150506 | 48 | 56 | 0.0 | 6.0 | 0.00 | 0.00 | 0.00 | 45 | 1014.2 |
| 20260507150024 | 47 | 291 | 2.0 | 6.0 | 0.00 | 0.00 | 0.00 | 45 | 1014.2 |
| 20260507145512 | 48 | 175 | 2.0 | 5.0 | 0.00 | 0.00 | 0.00 | 46 | 1014.3 |
| 20260507145008 | 48 | 192 | 1.0 | 4.0 | 0.00 | 0.00 | 0.00 | 46 | 1014.4 |
| 20260507144534 | 47 | 182 | 1.0 | 6.0 | 0.00 | 0.00 | 0.00 | 48 | 1014.4 |
| 20260507144009 | 46 | 277 | 4.0 | 6.0 | 0.00 | 0.00 | 0.00 | 47 | 1014.4 |
| 20260507143512 | 46 | 163 | 1.0 | 4.0 | 0.00 | 0.00 | 0.00 | 48 | 1014.5 |
| 20260507143029 | 45 | 205 | 0.0 | 4.0 | 0.00 | 0.00 | 0.00 | 50 | 1014.7 |
| 20260507142512 | 44 | 211 | 3.0 | 7.0 | 0.00 | 0.00 | 0.00 | 51 | 1014.6 |
| 20260507142006 | 44 | 254 | 3.0 | 7.0 | 0.00 | 0.00 | 0.00 | 50 | 1014.6 |
| 20260507141534 | 44 | 255 | 4.0 | 7.0 | 0.00 | 0.00 | 0.00 | 50 | 1014.6 |
| 20260507141006 | 43 | 246 | 3.0 | 7.0 | 0.00 | 0.00 | 0.00 | 51 | 1014.8 |
| 20260507140502 | 43 | 298 | 2.0 | 7.0 | 0.00 | 0.00 | 0.00 | 52 | 1014.9 |
| 20260507140004 | 43 | 264 | 1.0 | 7.0 | 0.00 | 0.00 | 0.00 | 54 | 1015.0 |
| 20260507135502 | 43 | 227 | 1.0 | 5.0 | 0.00 | 0.00 | 0.00 | 54 | 1015.0 |
| 20260507135005 | 42 | 246 | 0.0 | 9.0 | 0.00 | 0.00 | 0.00 | 56 | 1015.1 |
| 20260507134503 | 42 | 327 | 5.0 | 9.0 | 0.00 | 0.00 | 0.00 | 54 | 1015.2 |
| 20260507134003 | 43 | 282 | 4.0 | 9.0 | 0.00 | 0.00 | 0.00 | 54 | 1015.2 |
| 20260507133503 | 42 | 323 | 5.0 | 7.0 | 0.00 | 0.00 | 0.00 | 54 | 1015.3 |
| 20260507133002 | 42 | 336 | 2.0 | 7.0 | 0.00 | 0.00 | 0.00 | 55 | 1015.3 |
| 20260507132502 | 41 | 277 | 2.0 | 7.0 | 0.00 | 0.00 | 0.00 | 56 | 1015.4 |
| 20260507132006 | 41 | 297 | 4.0 | 7.0 | 0.00 | 0.00 | 0.00 | 56 | 1015.3 |
| 20260507131512 | 41 | 263 | 1.0 | 4.0 | 0.00 | 0.00 | 0.00 | 57 | 1015.3 |
| 20260507131003 | 41 | 288 | 2.0 | 4.0 | 0.00 | 0.00 | 0.00 | 60 | 1015.4 |
| 20260507130502 | 41 | 227 | 1.0 | 6.0 | 0.00 | 0.00 | 0.00 | 61 | 1015.4 |
| 20260507130003 | 41 | 247 | 3.0 | 9.0 | 0.00 | 0.00 | 0.00 | 61 | 1015.6 |
| 20260507125504 | 40 | 269 | 3.0 | 9.0 | 0.00 | 0.00 | 0.00 | 61 | 1015.3 |
| 20260507125002 | 40 | 246 | 5.0 | 9.0 | 0.00 | 0.00 | 0.00 | 61 | 1015.5 |
| 20260507124509 | 40 | 247 | 5.0 | 8.0 | 0.00 | 0.00 | 0.00 | 61 | 1015.3 |
| 20260507124004 | 40 | 215 | 1.0 | 8.0 | 0.00 | 0.00 | 0.00 | 61 | 1015.0 |
| 20260507123503 | 40 | 221 | 2.0 | 8.0 | 0.00 | 0.00 | 0.00 | 60 | 1014.9 |
| 20260507123004 | 40 | 246 | 2.0 | 6.0 | 0.00 | 0.00 | 0.00 | 61 | 1015.1 |
| 20260507122503 | 40 | 226 | 1.0 | 4.0 | 0.00 | 0.00 | 0.00 | 61 | 1015.0 |
| 20260507122003 | 39 | 254 | 2.0 | 5.0 | 0.00 | 0.00 | 0.00 | 64 | 1014.9 |
| 20260507121508 | 39 | 228 | 2.0 | 5.0 | 0.00 | 0.00 | 0.00 | 66 | 1015.0 |
| 20260507121003 | 38 | 205 | 0.0 | 4.0 | 0.00 | 0.00 | 0.00 | 68 | 1014.9 |
| 20260507120503 | 37 | 206 | 1.0 | 4.0 | 0.00 | 0.00 | 0.00 | 69 | 1015.0 |
| 20260507120006 | 36 | 192 | 1.0 | 4.0 | 0.00 | 0.00 | 0.00 | 69 | 1014.9 |
| 20260507115503 | 35 | 216 | 0.0 | 3.0 | 0.00 | 0.00 | 0.00 | 72 | 1014.8 |
| 20260507115000 | 35 | 209 | 0.0 | 2.0 | 0.00 | 0.00 | 0.00 | 73 | 1014.7 |
| 20260507114503 | 35 | 209 | 0.0 | 2.0 | 0.00 | 0.00 | 0.00 | 73 | 1014.7 |
| 20260507114001 | 34 | 209 | 1.0 | 2.0 | 0.00 | 0.00 | 0.00 | 73 | 1014.7 |
| 20260507113500 | 34 | 205 | 1.0 | 2.0 | 0.00 | 0.00 | 0.00 | 74 | 1014.6 |
| 20260507113023 | 33 | 221 | 0.0 | 2.0 | 0.00 | 0.00 | 0.00 | 75 | 1014.7 |
| 20260507112504 | 33 | 248 | 1.0 | 3.0 | 0.00 | 0.00 | 0.00 | 75 | 1014.5 |
| 20260507112004 | 33 | 227 | 1.0 | 3.0 | 0.00 | 0.00 | 0.00 | 75 | 1014.5 |
| 20260507111506 | 33 | 219 | 1.0 | 3.0 | 0.00 | 0.00 | 0.00 | 74 | 1014.5 |
| 20260507111002 | 32 | 252 | 1.0 | 2.0 | 0.00 | 0.00 | 0.00 | 75 | 1014.4 |
| 20260507110503 | 32 | 202 | 1.0 | 2.0 | 0.00 | 0.00 | 0.00 | 75 | 1014.3 |
| 20260507110006 | 32 | 202 | 1.0 | 2.0 | 0.00 | 0.00 | 0.00 | 75 | 1014.2 |
| 20260507105504 | 32 | 201 | 0.0 | 2.0 | 0.00 | 0.00 | 0.00 | 76 | 1014.2 |
| 20260507105003 | 31 | 201 | 0.0 | 2.0 | 0.00 | 0.00 | 0.00 | 76 | 1014.3 |
| 20260507104508 | 31 | 201 | 0.0 | 2.0 | 0.00 | 0.00 | 0.00 | 76 | 1014.3 |
| 20260507104005 | 32 | 201 | 0.0 | 2.0 | 0.00 | 0.00 | 0.00 | 76 | 1014.5 |
| 20260507103505 | 32 | 201 | 0.0 | 2.0 | 0.00 | 0.00 | 0.00 | 76 | 1014.4 |
| 20260507103006 | 32 | 201 | 1.0 | 2.0 | 0.00 | 0.00 | 0.00 | 76 | 1014.4 |
| 20260507102503 | 31 | 201 | 1.0 | 2.0 | 0.00 | 0.00 | 0.00 | 76 | 1014.4 |
| 20260507102006 | 31 | 201 | 1.0 | 2.0 | 0.00 | 0.00 | 0.00 | 76 | 1014.4 |
| 20260507101515 | 32 | 201 | 0.0 | 2.0 | 0.00 | 0.00 | 0.00 | 76 | 1014.4 |
| 20260507101005 | 32 | 196 | 0.0 | 2.0 | 0.00 | 0.00 | 0.00 | 76 | 1014.4 |
| 20260507100503 | 32 | 211 | 1.0 | 2.0 | 0.00 | 0.00 | 0.00 | 76 | 1014.5 |
| 20260507100011 | 32 | 223 | 1.0 | 2.0 | 0.00 | 0.00 | 0.00 | 76 | 1014.6 |
| 20260507095503 | 32 | 225 | 1.0 | 2.0 | 0.00 | 0.00 | 0.00 | 75 | 1014.6 |
| 20260507095003 | 32 | 248 | 1.0 | 2.0 | 0.00 | 0.00 | 0.00 | 75 | 1014.6 |
| 20260507094508 | 32 | 229 | 1.0 | 2.0 | 0.00 | 0.00 | 0.00 | 75 | 1014.5 |
| 20260507094002 | 32 | 234 | 1.0 | 2.0 | 0.00 | 0.00 | 0.00 | 74 | 1014.5 |
| 20260507093506 | 33 | 218 | 2.0 | 2.0 | 0.00 | 0.00 | 0.00 | 74 | 1014.4 |
| 20260507093008 | 33 | 233 | 1.0 | 3.0 | 0.00 | 0.00 | 0.00 | 74 | 1014.4 |
| 20260507092507 | 33 | 232 | 1.0 | 3.0 | 0.00 | 0.00 | 0.00 | 73 | 1014.4 |
| 20260507092006 | 33 | 229 | 1.0 | 2.0 | 0.00 | 0.00 | 0.00 | 73 | 1014.4 |
| 20260507091511 | 33 | 215 | 1.0 | 2.0 | 0.00 | 0.00 | 0.00 | 72 | 1014.4 |
| 20260507091003 | 33 | 232 | 1.0 | 2.0 | 0.00 | 0.00 | 0.00 | 72 | 1014.4 |
| 20260507090503 | 33 | 232 | 0.0 | 2.0 | 0.00 | 0.00 | 0.00 | 72 | 1014.3 |
| 20260507090010 | 33 | 232 | 1.0 | 2.0 | 0.00 | 0.00 | 0.00 | 72 | 1014.3 |
| 20260507085503 | 33 | 232 | 0.0 | 3.0 | 0.00 | 0.00 | 0.00 | 72 | 1014.3 |
| 20260507085003 | 33 | 232 | 0.0 | 3.0 | 0.00 | 0.00 | 0.00 | 71 | 1014.4 |
| 20260507084512 | 33 | 225 | 1.0 | 2.0 | 0.00 | 0.00 | 0.00 | 71 | 1014.4 |
| 20260507084004 | 33 | 225 | 1.0 | 2.0 | 0.00 | 0.00 | 0.00 | 71 | 1014.5 |
| 20260507083503 | 34 | 211 | 0.0 | 2.0 | 0.00 | 0.00 | 0.00 | 71 | 1014.5 |
| 20260507083012 | 34 | 211 | 0.0 | 2.0 | 0.00 | 0.00 | 0.00 | 70 | 1014.4 |
| 20260507082502 | 34 | 225 | 1.0 | 3.0 | 0.00 | 0.00 | 0.00 | 69 | 1014.4 |
| 20260507082005 | 34 | 224 | 1.0 | 3.0 | 0.00 | 0.00 | 0.00 | 69 | 1014.3 |
| 20260507081513 | 34 | 238 | 2.0 | 3.0 | 0.00 | 0.00 | 0.00 | 68 | 1014.4 |
| 20260507081003 | 35 | 234 | 1.0 | 2.0 | 0.00 | 0.00 | 0.00 | 68 | 1014.4 |
| 20260507080506 | 35 | 225 | 1.0 | 2.0 | 0.00 | 0.00 | 0.00 | 68 | 1014.3 |
| 20260507080014 | 35 | 225 | 0.0 | 2.0 | 0.00 | 0.00 | 0.00 | 67 | 1014.3 |
| 20260507075503 | 35 | 222 | 1.0 | 2.0 | 0.00 | 0.00 | 0.00 | 67 | 1014.4 |
| 20260507075003 | 35 | 232 | 1.0 | 3.0 | 0.00 | 0.00 | 0.00 | 68 | 1014.4 |
| 20260507074511 | 35 | 226 | 1.0 | 3.0 | 0.00 | 0.00 | 0.00 | 68 | 1014.5 |
| 20260507074004 | 36 | 222 | 2.0 | 3.0 | 0.00 | 0.00 | 0.00 | 66 | 1014.5 |
| 20260507073505 | 36 | 209 | 1.0 | 2.0 | 0.00 | 0.00 | 0.00 | 66 | 1014.5 |
| 20260507073013 | 36 | 234 | 1.0 | 2.0 | 0.00 | 0.00 | 0.00 | 65 | 1014.5 |
| 20260507072504 | 36 | 232 | 1.0 | 2.0 | 0.00 | 0.00 | 0.00 | 66 | 1014.4 |
| 20260507072003 | 37 | 232 | 1.0 | 2.0 | 0.00 | 0.00 | 0.00 | 64 | 1014.4 |
| 20260507071516 | 37 | 232 | 1.0 | 2.0 | 0.00 | 0.00 | 0.00 | 62 | 1014.5 |
| 20260507071003 | 37 | 232 | 0.0 | 2.0 | 0.00 | 0.00 | 0.00 | 61 | 1014.5 |
| 20260507070504 | 38 | 232 | 1.0 | 2.0 | 0.00 | 0.00 | 0.00 | 60 | 1014.7 |
| 20260507070016 | 38 | 252 | 1.0 | 2.0 | 0.00 | 0.00 | 0.00 | 60 | 1014.7 |
| 20260507065502 | 38 | 252 | 1.0 | 2.0 | 0.00 | 0.00 | 0.00 | 58 | 1014.8 |
| 20260507065006 | 38 | 252 | 0.0 | 2.0 | 0.00 | 0.00 | 0.00 | 58 | 1014.7 |
| 20260507064517 | 38 | 252 | 0.0 | 2.0 | 0.00 | 0.00 | 0.00 | 58 | 1014.8 |
| 20260507064004 | 38 | 252 | 0.0 | 2.0 | 0.00 | 0.00 | 0.00 | 58 | 1014.9 |
| 20260507063507 | 39 | 261 | 0.0 | 2.0 | 0.00 | 0.00 | 0.00 | 58 | 1014.9 |
| 20260507063013 | 39 | 233 | 0.0 | 2.0 | 0.00 | 0.00 | 0.00 | 58 | 1014.9 |
| 20260507062506 | 39 | 267 | 0.0 | 2.0 | 0.00 | 0.00 | 0.00 | 58 | 1015.0 |
| 20260507062004 | 39 | 221 | 1.0 | 3.0 | 0.00 | 0.00 | 0.00 | 58 | 1015.0 |
| 20260507061516 | 39 | 238 | 1.0 | 3.0 | 0.00 | 0.00 | 0.00 | 59 | 1015.0 |
| 20260507061004 | 39 | 246 | 0.0 | 3.0 | 0.00 | 0.00 | 0.00 | 59 | 1015.0 |
| 20260507060503 | 39 | 228 | 1.0 | 3.0 | 0.00 | 0.00 | 0.00 | 59 | 1015.0 |
| 20260507060020 | 39 | 221 | 1.0 | 2.0 | 0.00 | 0.00 | 0.00 | 60 | 1015.0 |
| 20260507055506 | 39 | 220 | 1.0 | 2.0 | 0.00 | 0.00 | 0.00 | 60 | 1015.0 |
| 20260507055011 | 39 | 235 | 0.0 | 2.0 | 0.00 | 0.00 | 0.00 | 60 | 1015.0 |
| 20260507054520 | 39 | 226 | 0.0 | 2.0 | 0.00 | 0.00 | 0.00 | 59 | 1015.1 |
| 20260507054003 | 39 | 240 | 1.0 | 2.0 | 0.00 | 0.00 | 0.00 | 59 | 1015.1 |
| 20260507053503 | 39 | 234 | 0.0 | 2.0 | 0.00 | 0.00 | 0.00 | 59 | 1015.1 |
| 20260507053018 | 39 | 234 | 0.0 | 2.0 | 0.00 | 0.00 | 0.00 | 58 | 1015.2 |
| 20260507052504 | 40 | 240 | 0.0 | 4.0 | 0.00 | 0.00 | 0.00 | 58 | 1015.2 |
| 20260507052004 | 40 | 258 | 1.0 | 4.0 | 0.00 | 0.00 | 0.00 | 58 | 1015.2 |
| 20260507051520 | 40 | 240 | 1.0 | 3.0 | 0.00 | 0.00 | 0.00 | 58 | 1015.2 |
| 20260507051007 | 40 | 243 | 2.0 | 3.0 | 0.00 | 0.00 | 0.00 | 57 | 1015.2 |
| 20260507050504 | 40 | 327 | 1.0 | 2.0 | 0.00 | 0.00 | 0.00 | 56 | 1015.1 |
| 20260507050003 | 40 | 327 | 0.0 | 2.0 | 0.00 | 0.00 | 0.00 | 56 | 1015.1 |
| 20260507045504 | 41 | 233 | 1.0 | 2.0 | 0.00 | 0.00 | 0.00 | 54 | 1015.1 |
| 20260507045004 | 41 | 271 | 0.0 | 2.0 | 0.00 | 0.00 | 0.00 | 54 | 1015.1 |
| 20260507044504 | 41 | 279 | 0.0 | 5.0 | 0.00 | 0.00 | 0.00 | 54 | 1015.2 |
| 20260507044005 | 42 | 279 | 0.0 | 5.0 | 0.00 | 0.00 | 0.00 | 53 | 1015.2 |
| 20260507043507 | 42 | 342 | 0.0 | 4.0 | 0.00 | 0.00 | 0.00 | 53 | 1015.2 |
| 20260507043010 | 42 | 269 | 1.0 | 4.0 | 0.00 | 0.00 | 0.00 | 52 | 1015.2 |
| 20260507042505 | 42 | 278 | 1.0 | 4.0 | 0.00 | 0.00 | 0.00 | 52 | 1015.1 |
| 20260507042006 | 42 | 300 | 2.0 | 6.0 | 0.00 | 0.00 | 0.00 | 52 | 1015.2 |
| 20260507041504 | 42 | 265 | 2.0 | 6.0 | 0.00 | 0.00 | 0.00 | 52 | 1015.2 |
| 20260507041006 | 42 | 314 | 1.0 | 5.0 | 0.00 | 0.00 | 0.00 | 52 | 1015.2 |
| 20260507040506 | 42 | 273 | 1.0 | 3.0 | 0.00 | 0.00 | 0.00 | 52 | 1015.2 |
| 20260507040004 | 42 | 250 | 0.0 | 2.0 | 0.00 | 0.00 | 0.00 | 52 | 1015.3 |
| 20260507035502 | 42 | 332 | 0.0 | 3.0 | 0.00 | 0.00 | 0.00 | 52 | 1015.3 |
| 20260507035008 | 43 | 246 | 1.0 | 3.0 | 0.00 | 0.00 | 0.00 | 51 | 1015.3 |
| 20260507034503 | 43 | 238 | 1.0 | 5.0 | 0.00 | 0.00 | 0.00 | 51 | 1015.4 |
| 20260507034003 | 43 | 279 | 0.0 | 8.0 | 0.00 | 0.00 | 0.00 | 50 | 1015.4 |
| 20260507033506 | 43 | 260 | 2.0 | 8.0 | 0.00 | 0.00 | 0.00 | 49 | 1015.5 |
| 20260507033004 | 43 | 298 | 2.0 | 6.0 | 0.00 | 0.00 | 0.00 | 49 | 1015.5 |
| 20260507032503 | 43 | 246 | 1.0 | 5.0 | 0.00 | 0.00 | 0.00 | 49 | 1015.6 |
| 20260507032009 | 43 | 247 | 2.0 | 5.0 | 0.00 | 0.00 | 0.00 | 49 | 1015.6 |
| 20260507031505 | 44 | 240 | 2.0 | 7.0 | 0.00 | 0.00 | 0.00 | 49 | 1015.5 |
| 20260507031003 | 44 | 290 | 0.0 | 7.0 | 0.00 | 0.00 | 0.00 | 49 | 1015.5 |
| 20260507030503 | 44 | 224 | 1.0 | 8.0 | 0.00 | 0.00 | 0.00 | 48 | 1015.6 |
| 20260507030007 | 44 | 326 | 3.0 | 8.0 | 0.00 | 0.00 | 0.00 | 48 | 1015.6 |
| 20260507025502 | 44 | 302 | 3.0 | 7.0 | 0.00 | 0.00 | 0.00 | 48 | 1015.6 |
| 20260507025003 | 44 | 352 | 2.0 | 6.0 | 0.00 | 0.00 | 0.00 | 48 | 1015.5 |
| 20260507024513 | 44 | 261 | 1.0 | 7.0 | 0.00 | 0.00 | 0.00 | 47 | 1015.4 |
| 20260507024003 | 44 | 237 | 0.0 | 8.0 | 0.00 | 0.00 | 0.00 | 47 | 1015.3 |
| 20260507023502 | 45 | 238 | 4.0 | 10.0 | 0.00 | 0.00 | 0.00 | 46 | 1015.4 |
| 20260507023008 | 45 | 311 | 4.0 | 11.0 | 0.00 | 0.00 | 0.00 | 46 | 1015.3 |
| 20260507022506 | 45 | 294 | 4.0 | 11.0 | 0.00 | 0.00 | 0.00 | 45 | 1015.2 |
| 20260507021959 | 45 | 290 | 4.0 | 12.0 | 0.00 | 0.00 | 0.00 | 45 | 1015.2 |
| 20260507021510 | 45 | 254 | 6.0 | 12.0 | 0.00 | 0.00 | 0.00 | 45 | 1015.1 |
| 20260507021008 | 46 | 13 | 7.0 | 12.0 | 0.00 | 0.00 | 0.00 | 45 | 1015.1 |
| 20260507020503 | 46 | 275 | 5.0 | 12.0 | 0.00 | 0.00 | 0.00 | 45 | 1015.0 |
| 20260507020013 | 46 | 268 | 4.0 | 12.0 | 0.00 | 0.00 | 0.00 | 45 | 1014.9 |
| 20260507015506 | 46 | 295 | 3.0 | 9.0 | 0.00 | 0.00 | 0.00 | 45 | 1014.7 |
| 20260507015005 | 46 | 227 | 2.0 | 12.0 | 0.00 | 0.00 | 0.00 | 45 | 1014.6 |
| 20260507014512 | 46 | 299 | 7.0 | 13.0 | 0.00 | 0.00 | 0.00 | 45 | 1014.5 |
| 20260507014007 | 47 | 288 | 8.0 | 16.0 | 0.00 | 0.00 | 0.00 | 44 | 1014.5 |
| 20260507013503 | 47 | 232 | 7.0 | 16.0 | 0.00 | 0.00 | 0.00 | 44 | 1014.5 |
| 20260507013020 | 47 | 283 | 6.0 | 20.0 | 0.00 | 0.00 | 0.00 | 44 | 1014.4 |
| 20260507012507 | 47 | 205 | 9.0 | 18.0 | 0.00 | 0.00 | 0.00 | 43 | 1014.4 |
| 20260507012003 | 47 | 303 | 5.0 | 15.0 | 0.00 | 0.00 | 0.00 | 43 | 1014.2 |
| 20260507011513 | 47 | 249 | 6.0 | 19.0 | 0.00 | 0.00 | 0.00 | 43 | 1014.2 |
| 20260507011007 | 47 | 183 | 7.0 | 19.0 | 0.00 | 0.00 | 0.00 | 43 | 1014.1 |
| 20260507010503 | 48 | 281 | 9.0 | 19.0 | 0.00 | 0.00 | 0.00 | 43 | 1014.0 |
| 20260507010015 | 48 | 270 | 6.0 | 19.0 | 0.00 | 0.00 | 0.00 | 43 | 1013.9 |
| 20260507005507 | 48 | 278 | 11.0 | 19.0 | 0.00 | 0.00 | 0.00 | 42 | 1013.9 |
| 20260507005004 | 48 | 258 | 7.0 | 13.0 | 0.00 | 0.00 | 0.00 | 42 | 1013.7 |
| 20260507004513 | 49 | 249 | 5.0 | 11.0 | 0.00 | 0.00 | 0.00 | 43 | 1013.6 |
| 20260507004007 | 49 | 285 | 3.0 | 11.0 | 0.00 | 0.00 | 0.00 | 42 | 1013.6 |
| 20260507003504 | 49 | 298 | 7.0 | 14.0 | 0.00 | 0.00 | 0.00 | 42 | 1013.7 |
| 20260507003014 | 49 | 282 | 3.0 | 14.0 | 0.00 | 0.00 | 0.00 | 42 | 1013.7 |
| 20260507002506 | 49 | 240 | 4.0 | 14.0 | 0.00 | 0.00 | 0.00 | 41 | 1013.6 |
| 20260507002003 | 50 | 351 | 8.0 | 15.0 | 0.00 | 0.00 | 0.00 | 41 | 1013.6 |
| 20260507001544 | 50 | 299 | 8.0 | 15.0 | 0.00 | 0.00 | 0.00 | 40 | 1013.6 |
| 20260507001006 | 50 | 269 | 3.0 | 14.0 | 0.00 | 0.00 | 0.00 | 41 | 1013.5 |
| 20260507000505 | 50 | 331 | 6.0 | 14.0 | 0.00 | 0.00 | 0.00 | 40 | 1013.5 |